Time,TemperatureF,DewpointF,PressureIn,WindDirection,WindDirectionDegrees,WindSpeedMPH,WindSpeedGustMPH,Humidity,HourlyPrecipIn,Conditions,Clouds,dailyrainin,SoftwareType,DateUTC
2013-05-06 00:05:00,57.0,45.4,29.88,NNE,22,0.0,2.0,65,0.00,,---,0.00,VWS V14.01,2013-05-06 07:05:00,
2013-05-06 00:15:00,56.5,44.5,29.88,NW,315,0.0,0.0,64,0.00,,---,0.00,VWS V14.01,2013-05-06 07:15:00,
2013-05-06 00:20:00,56.3,44.7,29.88,NW,315,0.0,0.0,65,0.00,,---,0.00,VWS V14.01,2013-05-06 07:20:00,
2013-05-06 00:25:00,56.1,44.5,29.88,NW,315,0.0,0.0,65,0.00,,---,0.00,VWS V14.01,2013-05-06 07:25:00,
2013-05-06 00:30:00,55.9,44.4,29.88,NW,315,0.0,0.0,65,0.00,,---,0.00,VWS V14.01,2013-05-06 07:30:00,
2013-05-06 00:35:00,56.1,44.9,29.88,NW,315,0.0,0.0,66,0.00,,---,0.00,VWS V14.01,2013-05-06 07:35:00,
2013-05-06 00:40:00,56.3,45.1,29.88,NNW,338,0.0,0.0,66,0.00,,---,0.00,VWS V14.01,2013-05-06 07:40:00,
2013-05-06 00:50:00,56.7,46.2,29.85,WSW,248,1.6,2.9,68,0.00,,---,0.00,VWS V14.01,2013-05-06 07:50:00,
2013-05-06 01:00:00,57.0,46.6,29.85,WNW,292,0.0,2.7,68,0.00,,---,0.00,VWS V14.01,2013-05-06 08:00:00,
2013-05-06 01:05:00,57.0,46.6,29.85,South,180,0.0,3.6,68,0.00,,---,0.00,VWS V14.01,2013-05-06 08:05:00,
2013-05-06 01:15:00,56.5,46.1,29.88,NNE,22,1.1,2.7,68,0.00,,---,0.00,VWS V14.01,2013-05-06 08:15:00,
2013-05-06 01:20:00,56.3,45.9,29.88,NNW,338,0.0,2.5,68,0.00,,---,0.00,VWS V14.01,2013-05-06 08:20:00,
2013-05-06 01:25:00,56.1,45.7,29.88,NNW,338,0.0,0.0,68,0.00,,---,0.00,VWS V14.01,2013-05-06 08:25:00,
2013-05-06 01:35:00,55.9,45.5,29.88,North,0,0.0,1.6,68,0.00,,---,0.00,VWS V14.01,2013-05-06 08:35:00,
2013-05-06 01:40:00,55.9,45.9,29.88,North,0,0.0,1.1,69,0.00,,---,0.00,VWS V14.01,2013-05-06 08:40:00,
2013-05-06 01:50:00,55.9,46.3,29.88,North,0,0.0,3.6,70,0.00,,---,0.00,VWS V14.01,2013-05-06 08:50:00,
2013-05-06 02:00:00,55.8,45.8,29.88,WNW,292,0.0,1.3,69,0.00,,---,0.00,VWS V14.01,2013-05-06 09:00:00,
2013-05-06 02:05:00,55.6,45.6,29.88,WNW,292,0.0,0.0,69,0.00,,---,0.00,VWS V14.01,2013-05-06 09:05:00,
2013-05-06 02:10:00,55.6,46.0,29.88,NNE,22,0.0,2.7,70,0.00,,---,0.00,VWS V14.01,2013-05-06 09:10:00,
2013-05-06 02:20:00,55.8,46.1,29.88,NW,315,0.0,0.0,70,0.00,,---,0.00,VWS V14.01,2013-05-06 09:20:00,
2013-05-06 02:25:00,55.9,47.1,29.88,NNW,338,2.9,2.9,72,0.00,,---,0.00,VWS V14.01,2013-05-06 09:25:00,
2013-05-06 02:35:00,55.9,47.1,29.88,NNW,338,0.0,2.7,72,0.00,,---,0.00,VWS V14.01,2013-05-06 09:35:00,
2013-05-06 02:45:00,56.1,47.2,29.88,NNW,338,0.0,2.2,72,0.00,,---,0.00,VWS V14.01,2013-05-06 09:45:00,
2013-05-06 02:50:00,56.1,47.2,29.88,NNW,338,1.6,3.6,72,0.00,,---,0.00,VWS V14.01,2013-05-06 09:50:00,
2013-05-06 03:00:00,56.1,47.6,29.88,North,0,1.6,2.7,73,0.00,,---,0.00,VWS V14.01,2013-05-06 10:00:00,
2013-05-06 03:10:00,55.9,47.4,29.88,North,0,2.5,2.5,73,0.00,,---,0.00,VWS V14.01,2013-05-06 10:10:00,
2013-05-06 03:20:00,55.8,46.9,29.88,North,0,3.4,3.4,72,0.00,,---,0.00,VWS V14.01,2013-05-06 10:20:00,
2013-05-06 03:30:00,55.6,47.1,29.88,NNW,338,2.9,2.9,73,0.00,,---,0.00,VWS V14.01,2013-05-06 10:30:00,
2013-05-06 03:35:00,55.4,47.3,29.88,NNW,338,1.3,3.6,74,0.00,,---,0.00,VWS V14.01,2013-05-06 10:35:00,
2013-05-06 03:45:00,55.0,47.3,29.88,North,0,1.3,3.1,75,0.00,,---,0.00,VWS V14.01,2013-05-06 10:45:00,
2013-05-06 03:50:00,55.0,47.3,29.88,North,0,1.1,3.1,75,0.00,,---,0.00,VWS V14.01,2013-05-06 10:50:00,
2013-05-06 03:55:00,55.0,47.3,29.88,NNW,338,0.0,2.7,75,0.00,,---,0.00,VWS V14.01,2013-05-06 10:55:00,
2013-05-06 04:05:00,54.9,46.7,29.85,North,0,0.0,2.0,74,0.00,,---,0.00,VWS V14.01,2013-05-06 11:05:00,
2013-05-06 04:15:00,54.7,46.9,29.88,NW,315,0.0,2.7,75,0.00,,---,0.00,VWS V14.01,2013-05-06 11:15:00,
2013-05-06 04:20:00,54.9,47.5,29.88,NNE,22,1.6,2.9,76,0.00,,---,0.00,VWS V14.01,2013-05-06 11:20:00,
2013-05-06 04:25:00,54.9,47.8,29.88,NNW,338,3.6,3.8,77,0.00,,---,0.00,VWS V14.01,2013-05-06 11:25:00,
2013-05-06 04:30:00,54.9,47.5,29.88,NNW,338,0.0,3.6,76,0.00,,---,0.00,VWS V14.01,2013-05-06 11:30:00,
2013-05-06 04:40:00,54.9,47.5,29.88,NNE,22,0.0,2.2,76,0.00,,---,0.00,VWS V14.01,2013-05-06 11:40:00,
2013-05-06 04:50:00,54.9,47.5,29.88,North,0,0.9,3.1,76,0.00,,---,0.00,VWS V14.01,2013-05-06 11:50:00,
2013-05-06 05:00:00,54.5,46.8,29.88,NNW,338,0.0,2.7,75,0.00,,---,0.00,VWS V14.01,2013-05-06 12:00:00,
2013-05-06 05:10:00,53.6,45.9,29.88,NNW,338,0.0,0.0,75,0.00,,---,0.00,VWS V14.01,2013-05-06 12:10:00,
2013-05-06 05:15:00,53.6,45.9,29.88,North,0,2.0,2.9,75,0.00,,---,0.00,VWS V14.01,2013-05-06 12:15:00,
2013-05-06 05:20:00,53.6,46.6,29.88,NNW,338,0.0,2.9,77,0.00,,---,0.00,VWS V14.01,2013-05-06 12:20:00,
2013-05-06 05:30:00,53.1,46.0,29.88,NNW,338,1.6,3.6,77,0.00,,---,0.00,VWS V14.01,2013-05-06 12:30:00,
2013-05-06 05:35:00,52.9,46.5,29.88,North,0,0.0,3.1,79,0.00,,---,0.00,VWS V14.01,2013-05-06 12:35:00,
2013-05-06 05:40:00,52.7,46.4,29.88,North,0,0.0,0.0,79,0.00,,---,0.00,VWS V14.01,2013-05-06 12:40:00,
2013-05-06 05:45:00,52.5,46.5,29.88,NNW,338,2.7,2.7,80,0.00,,---,0.00,VWS V14.01,2013-05-06 12:45:00,
2013-05-06 05:50:00,52.5,46.5,29.88,NNW,338,0.0,2.7,80,0.00,,---,0.00,VWS V14.01,2013-05-06 12:50:00,
2013-05-06 06:00:00,52.2,46.2,29.88,NNW,338,0.0,1.3,80,0.00,,---,0.00,VWS V14.01,2013-05-06 13:00:00,
2013-05-06 06:05:00,52.0,46.7,29.88,NNW,338,1.1,3.4,82,0.00,,---,0.00,VWS V14.01,2013-05-06 13:05:00,
2013-05-06 06:10:00,52.0,46.7,29.88,NNW,338,0.0,1.3,82,0.00,,---,0.00,VWS V14.01,2013-05-06 13:10:00,
2013-05-06 06:15:00,51.8,46.5,29.88,NNW,338,0.0,0.0,82,0.00,,---,0.00,VWS V14.01,2013-05-06 13:15:00,
2013-05-06 06:20:00,51.8,46.5,29.88,NNW,338,0.0,0.0,82,0.00,,---,0.00,VWS V14.01,2013-05-06 13:20:00,
2013-05-06 06:25:00,51.6,46.3,29.88,NNW,338,0.0,0.0,82,0.00,,---,0.00,VWS V14.01,2013-05-06 13:25:00,
2013-05-06 06:35:00,51.3,46.3,29.88,NNW,338,0.0,0.0,83,0.00,,---,0.00,VWS V14.01,2013-05-06 13:35:00,
2013-05-06 06:40:00,51.1,45.8,29.88,NNW,338,0.0,0.0,82,0.00,,---,0.00,VWS V14.01,2013-05-06 13:40:00,
2013-05-06 06:50:00,51.8,47.8,29.88,NNE,22,2.2,3.1,86,0.00,,---,0.00,VWS V14.01,2013-05-06 13:50:00,
2013-05-06 06:55:00,52.0,47.9,29.88,North,0,0.0,3.1,86,0.00,,---,0.00,VWS V14.01,2013-05-06 13:55:00,
2013-05-06 07:05:00,52.0,47.3,29.91,NNW,338,0.0,0.0,84,0.00,,---,0.00,VWS V14.01,2013-05-06 14:05:00,
2013-05-06 07:10:00,52.5,47.8,29.91,NNW,338,0.0,1.6,84,0.00,,---,0.00,VWS V14.01,2013-05-06 14:10:00,
2013-05-06 07:15:00,53.8,49.1,29.91,NNW,338,0.0,0.0,84,0.00,,---,0.00,VWS V14.01,2013-05-06 14:15:00,
2013-05-06 07:20:00,54.7,50.0,29.91,NW,315,0.0,0.0,84,0.00,,---,0.00,VWS V14.01,2013-05-06 14:20:00,
2013-05-06 07:25:00,54.9,49.8,29.91,NNW,338,0.0,0.0,83,0.00,,---,0.00,VWS V14.01,2013-05-06 14:25:00,
2013-05-06 07:30:00,55.2,49.8,29.91,NNW,338,0.0,0.0,82,0.00,,---,0.00,VWS V14.01,2013-05-06 14:30:00,
2013-05-06 07:35:00,58.3,52.8,29.91,North,0,0.0,0.0,82,0.00,,---,0.00,VWS V14.01,2013-05-06 14:35:00,
2013-05-06 07:40:00,58.3,52.2,29.91,North,0,0.0,0.0,80,0.00,,---,0.00,VWS V14.01,2013-05-06 14:40:00,
2013-05-06 07:45:00,58.1,50.6,29.91,ESE,112,2.2,2.2,76,0.00,,---,0.00,VWS V14.01,2013-05-06 14:45:00,
2013-05-06 07:50:00,58.5,50.2,29.91,ENE,68,0.0,2.5,74,0.00,,---,0.00,VWS V14.01,2013-05-06 14:50:00,
2013-05-06 07:55:00,59.0,50.0,29.91,East,90,0.0,2.0,72,0.00,,---,0.00,VWS V14.01,2013-05-06 14:55:00,
2013-05-06 08:00:00,59.7,50.3,29.91,ENE,68,0.0,1.6,71,0.00,,---,0.00,VWS V14.01,2013-05-06 15:00:00,
2013-05-06 08:05:00,61.0,50.8,29.91,ENE,68,0.0,0.0,69,0.00,,---,0.00,VWS V14.01,2013-05-06 15:05:00,
2013-05-06 08:10:00,61.5,50.9,29.91,ENE,68,0.0,2.5,68,0.00,,---,0.00,VWS V14.01,2013-05-06 15:10:00,
2013-05-06 08:15:00,64.4,52.4,29.94,NNE,22,2.5,2.5,65,0.00,,---,0.00,VWS V14.01,2013-05-06 15:15:00,
2013-05-06 08:20:00,65.1,51.8,29.94,East,90,0.0,3.1,62,0.00,,---,0.00,VWS V14.01,2013-05-06 15:20:00,
2013-05-06 08:25:00,66.4,52.5,29.94,West,270,1.1,1.3,61,0.00,,---,0.00,VWS V14.01,2013-05-06 15:25:00,
2013-05-06 08:30:00,68.0,49.2,29.91,SE,135,1.3,3.8,51,0.00,,---,0.00,VWS V14.01,2013-05-06 15:30:00,
2013-05-06 08:35:00,69.4,48.3,29.91,ENE,68,2.0,3.6,47,0.00,,---,0.00,VWS V14.01,2013-05-06 15:35:00,
2013-05-06 08:40:00,68.5,45.8,29.91,SSW,202,0.0,3.4,44,0.00,,---,0.00,VWS V14.01,2013-05-06 15:40:00,
2013-05-06 08:45:00,67.1,45.1,29.94,SW,225,2.0,3.6,45,0.00,,---,0.00,VWS V14.01,2013-05-06 15:45:00,
2013-05-06 08:50:00,65.5,43.6,29.94,West,270,1.3,3.6,45,0.00,,---,0.00,VWS V14.01,2013-05-06 15:50:00,
2013-05-06 08:55:00,64.8,43.5,29.94,West,270,0.0,2.2,46,0.00,,---,0.00,VWS V14.01,2013-05-06 15:55:00,
2013-05-06 09:00:00,64.6,43.4,29.94,ESE,112,2.0,4.0,46,0.00,,---,0.00,VWS V14.01,2013-05-06 16:00:00,
2013-05-06 09:05:00,64.4,43.2,29.94,South,180,3.1,3.1,46,0.00,,---,0.00,VWS V14.01,2013-05-06 16:05:00,
2013-05-06 09:10:00,64.4,43.8,29.94,South,180,0.0,3.4,47,0.00,,---,0.00,VWS V14.01,2013-05-06 16:10:00,
2013-05-06 09:15:00,65.8,45.1,29.94,ESE,112,0.0,2.2,47,0.00,,---,0.00,VWS V14.01,2013-05-06 16:15:00,
2013-05-06 09:20:00,67.6,46.1,29.94,SW,225,1.6,2.7,46,0.00,,---,0.00,VWS V14.01,2013-05-06 16:20:00,
2013-05-06 09:25:00,67.3,44.7,29.94,SW,225,0.0,3.6,44,0.00,,---,0.00,VWS V14.01,2013-05-06 16:25:00,
2013-05-06 09:30:00,67.3,44.7,29.94,SE,135,1.6,3.8,44,0.00,,---,0.00,VWS V14.01,2013-05-06 16:30:00,
2013-05-06 09:35:00,66.0,42.9,29.94,WSW,248,0.0,3.4,43,0.00,,---,0.00,VWS V14.01,2013-05-06 16:35:00,
2013-05-06 09:40:00,65.5,43.0,29.94,WNW,292,0.0,2.9,44,0.00,,---,0.00,VWS V14.01,2013-05-06 16:40:00,
2013-05-06 09:45:00,65.1,42.7,29.94,SSW,202,0.0,6.0,44,0.00,,---,0.00,VWS V14.01,2013-05-06 16:45:00,
2013-05-06 09:50:00,65.5,43.0,29.94,SSW,202,2.7,4.0,44,0.00,,---,0.00,VWS V14.01,2013-05-06 16:50:00,
2013-05-06 09:55:00,67.3,44.7,29.94,SSE,158,2.5,2.7,44,0.00,,---,0.00,VWS V14.01,2013-05-06 16:55:00,
2013-05-06 10:00:00,67.6,44.4,29.94,ENE,68,0.0,3.6,43,0.00,,---,0.00,VWS V14.01,2013-05-06 17:00:00,
2013-05-06 10:05:00,69.1,45.0,29.94,NNW,338,1.3,2.5,42,0.00,,---,0.00,VWS V14.01,2013-05-06 17:05:00,
2013-05-06 10:10:00,72.1,44.5,29.94,North,0,0.0,2.9,37,0.00,,---,0.00,VWS V14.01,2013-05-06 17:10:00,
2013-05-06 10:15:00,71.8,43.4,29.94,NW,315,0.0,4.3,36,0.00,,---,0.00,VWS V14.01,2013-05-06 17:15:00,
2013-05-06 10:20:00,71.8,43.4,29.94,SSW,202,0.9,3.1,36,0.00,,---,0.00,VWS V14.01,2013-05-06 17:20:00,
2013-05-06 10:25:00,71.8,43.4,29.94,NNE,22,1.6,3.1,36,0.00,,---,0.00,VWS V14.01,2013-05-06 17:25:00,
2013-05-06 10:30:00,72.7,43.5,29.94,NE,45,0.0,3.4,35,0.00,,---,0.00,VWS V14.01,2013-05-06 17:30:00,
2013-05-06 10:35:00,73.4,43.3,29.94,South,180,0.0,2.2,34,0.00,,---,0.00,VWS V14.01,2013-05-06 17:35:00,
2013-05-06 10:40:00,76.5,44.4,29.94,NE,45,0.9,3.4,32,0.00,,---,0.00,VWS V14.01,2013-05-06 17:40:00,
2013-05-06 10:45:00,76.3,44.3,29.97,SW,225,1.3,3.6,32,0.00,,---,0.00,VWS V14.01,2013-05-06 17:45:00,
2013-05-06 10:50:00,75.0,43.2,29.97,SW,225,1.3,2.5,32,0.00,,---,0.00,VWS V14.01,2013-05-06 17:50:00,
2013-05-06 10:55:00,73.9,42.2,29.97,ESE,112,3.1,4.0,32,0.00,,---,0.00,VWS V14.01,2013-05-06 17:55:00,
2013-05-06 11:00:00,73.8,42.1,29.94,SSE,158,0.0,4.3,32,0.00,,---,0.00,VWS V14.01,2013-05-06 18:00:00,
2013-05-06 11:05:00,74.7,42.9,29.94,WSW,248,0.0,2.0,32,0.00,,---,0.00,VWS V14.01,2013-05-06 18:05:00,
2013-05-06 11:10:00,74.7,42.0,29.94,ESE,112,1.1,4.0,31,0.00,,---,0.00,VWS V14.01,2013-05-06 18:10:00,
2013-05-06 11:15:00,73.8,41.3,29.94,SSE,158,0.0,4.3,31,0.00,,---,0.00,VWS V14.01,2013-05-06 18:15:00,
2013-05-06 11:20:00,73.4,41.0,29.94,SW,225,2.2,3.6,31,0.00,,---,0.00,VWS V14.01,2013-05-06 18:20:00,
2013-05-06 11:25:00,72.0,40.5,29.94,SSE,158,1.3,4.0,32,0.00,,---,0.00,VWS V14.01,2013-05-06 18:25:00,
2013-05-06 11:30:00,71.4,40.8,29.94,NNE,22,0.0,1.6,33,0.00,,---,0.00,VWS V14.01,2013-05-06 18:30:00,
2013-05-06 11:35:00,70.7,40.2,29.94,WSW,248,2.5,2.9,33,0.00,,---,0.00,VWS V14.01,2013-05-06 18:35:00,
2013-05-06 11:40:00,69.4,39.9,29.94,SE,135,4.3,4.7,34,0.00,,---,0.00,VWS V14.01,2013-05-06 18:40:00,
2013-05-06 11:45:00,69.1,40.3,29.91,SSW,202,2.7,8.1,35,0.00,,---,0.00,VWS V14.01,2013-05-06 18:45:00,
2013-05-06 11:50:00,69.6,40.8,29.91,ESE,112,4.9,5.4,35,0.00,,---,0.00,VWS V14.01,2013-05-06 18:50:00,
2013-05-06 11:55:00,71.4,41.6,29.91,SSW,202,2.5,5.6,34,0.00,,---,0.00,VWS V14.01,2013-05-06 18:55:00,
2013-05-06 12:00:00,72.0,41.3,29.94,SE,135,0.0,4.9,33,0.00,,---,0.00,VWS V14.01,2013-05-06 19:00:00,
2013-05-06 12:05:00,72.1,42.2,29.94,SSE,158,2.0,3.6,34,0.00,,---,0.00,VWS V14.01,2013-05-06 19:05:00,
2013-05-06 12:10:00,72.7,42.0,29.94,SE,135,2.7,4.3,33,0.00,,---,0.00,VWS V14.01,2013-05-06 19:10:00,
2013-05-06 12:15:00,72.5,41.8,29.94,ESE,112,1.6,4.0,33,0.00,,---,0.00,VWS V14.01,2013-05-06 19:15:00,
2013-05-06 12:20:00,72.3,40.8,29.94,SE,135,2.7,7.6,32,0.00,,---,0.00,VWS V14.01,2013-05-06 19:20:00,
2013-05-06 12:25:00,72.5,41.0,29.94,NNE,22,4.5,5.8,32,0.00,,---,0.00,VWS V14.01,2013-05-06 19:25:00,
2013-05-06 12:30:00,72.1,41.5,29.94,ESE,112,2.5,4.5,33,0.00,,---,0.00,VWS V14.01,2013-05-06 19:30:00,
2013-05-06 12:35:00,71.6,41.0,29.94,SW,225,0.0,2.7,33,0.00,,---,0.00,VWS V14.01,2013-05-06 19:35:00,
2013-05-06 12:40:00,70.9,40.4,29.94,SE,135,2.2,3.8,33,0.00,,---,0.00,VWS V14.01,2013-05-06 19:40:00,
2013-05-06 12:45:00,70.7,41.0,29.94,SW,225,2.5,2.7,34,0.00,,---,0.00,VWS V14.01,2013-05-06 19:45:00,
2013-05-06 12:50:00,69.3,41.2,29.94,SSW,202,2.0,7.4,36,0.00,,---,0.00,VWS V14.01,2013-05-06 19:50:00,
2013-05-06 12:55:00,68.4,41.8,29.94,WSW,248,3.1,4.0,38,0.00,,---,0.00,VWS V14.01,2013-05-06 19:55:00,
2013-05-06 13:00:00,67.8,42.0,29.91,SW,225,3.1,6.5,39,0.00,,---,0.00,VWS V14.01,2013-05-06 20:00:00,
2013-05-06 13:05:00,68.0,42.1,29.91,WSW,248,3.6,5.6,39,0.00,,---,0.00,VWS V14.01,2013-05-06 20:05:00,
2013-05-06 13:10:00,67.8,43.3,29.91,WNW,292,2.0,6.5,41,0.00,,---,0.00,VWS V14.01,2013-05-06 20:10:00,
2013-05-06 13:15:00,69.8,45.1,29.94,North,0,2.0,4.7,41,0.00,,---,0.00,VWS V14.01,2013-05-06 20:15:00,
2013-05-06 13:20:00,70.2,44.1,29.94,NNW,338,5.8,5.8,39,0.00,,---,0.00,VWS V14.01,2013-05-06 20:20:00,
2013-05-06 13:25:00,70.3,43.5,29.94,NNW,338,1.3,8.5,38,0.00,,---,0.00,VWS V14.01,2013-05-06 20:25:00,
2013-05-06 13:30:00,73.9,46.8,29.94,NNE,22,1.1,4.7,38,0.00,,---,0.00,VWS V14.01,2013-05-06 20:30:00,
2013-05-06 13:35:00,77.0,46.5,29.94,SSW,202,2.5,4.9,34,0.00,,---,0.00,VWS V14.01,2013-05-06 20:35:00,
2013-05-06 13:40:00,78.1,45.8,29.94,ESE,112,2.7,6.0,32,0.00,,---,0.00,VWS V14.01,2013-05-06 20:40:00,
2013-05-06 13:45:00,76.1,44.9,29.94,WSW,248,3.4,4.3,33,0.00,,---,0.00,VWS V14.01,2013-05-06 20:45:00,
2013-05-06 13:50:00,75.9,44.8,29.94,WNW,292,1.1,5.8,33,0.00,,---,0.00,VWS V14.01,2013-05-06 20:50:00,
2013-05-06 13:55:00,79.5,46.3,29.94,WSW,248,2.7,3.8,31,0.00,,---,0.00,VWS V14.01,2013-05-06 20:55:00,
2013-05-06 14:00:00,79.9,45.7,29.91,WSW,248,2.9,7.2,30,0.00,,---,0.00,VWS V14.01,2013-05-06 21:00:00,
2013-05-06 14:05:00,76.5,43.6,29.91,SSW,202,2.0,4.9,31,0.00,,---,0.00,VWS V14.01,2013-05-06 21:05:00,
2013-05-06 14:10:00,76.5,43.6,29.91,NNW,338,2.5,4.7,31,0.00,,---,0.00,VWS V14.01,2013-05-06 21:10:00,
2013-05-06 14:15:00,76.6,43.8,29.91,West,270,1.6,4.3,31,0.00,,---,0.00,VWS V14.01,2013-05-06 21:15:00,
2013-05-06 14:20:00,76.3,43.5,29.91,WSW,248,2.0,6.3,31,0.00,,---,0.00,VWS V14.01,2013-05-06 21:20:00,
2013-05-06 14:25:00,75.0,42.4,29.91,SSW,202,1.3,3.1,31,0.00,,---,0.00,VWS V14.01,2013-05-06 21:25:00,
2013-05-06 14:30:00,73.4,41.0,29.94,SE,135,5.8,6.3,31,0.00,,---,0.00,VWS V14.01,2013-05-06 21:30:00,
2013-05-06 14:35:00,72.5,41.0,29.94,WSW,248,2.2,5.8,32,0.00,,---,0.00,VWS V14.01,2013-05-06 21:35:00,
2013-05-06 14:40:00,72.3,41.6,29.94,WSW,248,2.2,3.4,33,0.00,,---,0.00,VWS V14.01,2013-05-06 21:40:00,
2013-05-06 14:45:00,71.1,41.3,29.94,NW,315,3.6,5.8,34,0.00,,---,0.00,VWS V14.01,2013-05-06 21:45:00,
2013-05-06 14:50:00,70.0,40.3,29.94,SSW,202,2.7,4.3,34,0.00,,---,0.00,VWS V14.01,2013-05-06 21:50:00,
2013-05-06 14:55:00,69.6,40.8,29.94,WSW,248,0.9,2.7,35,0.00,,---,0.00,VWS V14.01,2013-05-06 21:55:00,
2013-05-06 15:00:00,69.8,40.9,29.94,South,180,0.0,4.3,35,0.00,,---,0.00,VWS V14.01,2013-05-06 22:00:00,
2013-05-06 15:05:00,70.5,41.6,29.94,NNW,338,1.1,4.7,35,0.00,,---,0.00,VWS V14.01,2013-05-06 22:05:00,
2013-05-06 15:10:00,71.6,41.8,29.94,SSW,202,1.3,2.2,34,0.00,,---,0.00,VWS V14.01,2013-05-06 22:10:00,
2013-05-06 15:15:00,72.0,42.1,29.94,WSW,248,2.2,3.1,34,0.00,,---,0.00,VWS V14.01,2013-05-06 22:15:00,
2013-05-06 15:20:00,72.0,42.1,29.94,ENE,68,0.0,2.9,34,0.00,,---,0.00,VWS V14.01,2013-05-06 22:20:00,
2013-05-06 15:25:00,70.7,41.0,29.94,WSW,248,5.4,5.6,34,0.00,,---,0.00,VWS V14.01,2013-05-06 22:25:00,
2013-05-06 15:30:00,69.6,40.8,29.94,SSW,202,3.1,5.4,35,0.00,,---,0.00,VWS V14.01,2013-05-06 22:30:00,
2013-05-06 15:35:00,68.9,40.9,29.94,West,270,1.1,5.8,36,0.00,,---,0.00,VWS V14.01,2013-05-06 22:35:00,
2013-05-06 15:40:00,69.4,42.1,29.94,WSW,248,1.3,2.7,37,0.00,,---,0.00,VWS V14.01,2013-05-06 22:40:00,
2013-05-06 15:45:00,69.4,42.1,29.94,NNW,338,0.0,4.3,37,0.00,,---,0.00,VWS V14.01,2013-05-06 22:45:00,
2013-05-06 15:50:00,70.3,42.9,29.94,NNW,338,3.1,3.6,37,0.00,,---,0.00,VWS V14.01,2013-05-06 22:50:00,
2013-05-06 15:55:00,71.6,43.3,29.94,North,0,2.9,4.3,36,0.00,,---,0.00,VWS V14.01,2013-05-06 22:55:00,
2013-05-06 16:00:00,73.9,43.8,29.94,NNW,338,2.0,5.6,34,0.00,,---,0.00,VWS V14.01,2013-05-06 23:00:00,
2013-05-06 16:05:00,77.2,45.1,29.94,NNW,338,4.3,4.5,32,0.00,,---,0.00,VWS V14.01,2013-05-06 23:05:00,
2013-05-06 16:10:00,77.4,44.4,29.94,East,90,1.6,5.4,31,0.00,,---,0.00,VWS V14.01,2013-05-06 23:10:00,
2013-05-06 16:15:00,79.9,46.6,29.94,WSW,248,2.9,3.4,31,0.00,,---,0.00,VWS V14.01,2013-05-06 23:15:00,
2013-05-06 16:20:00,81.7,46.4,29.94,WSW,248,1.6,3.6,29,0.00,,---,0.00,VWS V14.01,2013-05-06 23:20:00,
2013-05-06 16:30:00,78.1,44.2,29.94,SSW,202,1.3,2.5,30,0.00,,---,0.00,VWS V14.01,2013-05-06 23:30:00,
2013-05-06 16:35:00,75.2,41.7,29.94,WNW,292,1.1,4.0,30,0.00,,---,0.00,VWS V14.01,2013-05-06 23:35:00,
2013-05-06 16:40:00,72.7,41.2,29.94,North,0,3.4,6.0,32,0.00,,---,0.00,VWS V14.01,2013-05-06 23:40:00,
2013-05-06 16:45:00,71.4,40.8,29.94,WSW,248,1.1,4.3,33,0.00,,---,0.00,VWS V14.01,2013-05-06 23:45:00,
2013-05-06 16:50:00,70.9,40.4,29.94,WSW,248,1.6,4.0,33,0.00,,---,0.00,VWS V14.01,2013-05-06 23:50:00,
2013-05-06 16:55:00,70.0,41.1,29.94,ENE,68,0.0,3.6,35,0.00,,---,0.00,VWS V14.01,2013-05-06 23:55:00,
2013-05-06 17:05:00,69.1,41.0,29.94,WSW,248,1.6,4.0,36,0.00,,---,0.00,VWS V14.01,2013-05-07 00:05:00,
2013-05-06 17:15:00,68.2,40.9,29.94,NNW,338,1.3,6.0,37,0.00,,---,0.00,VWS V14.01,2013-05-07 00:15:00,
2013-05-06 17:20:00,68.2,41.6,29.94,North,0,1.3,5.6,38,0.00,,---,0.00,VWS V14.01,2013-05-07 00:20:00,
2013-05-06 17:30:00,68.2,41.6,29.94,WSW,248,3.1,4.0,38,0.00,,---,0.00,VWS V14.01,2013-05-07 00:30:00,
2013-05-06 17:40:00,68.4,43.1,29.94,NNW,338,2.2,4.0,40,0.00,,---,0.00,VWS V14.01,2013-05-07 00:40:00,
2013-05-06 17:45:00,68.9,43.0,29.97,WSW,248,2.7,5.6,39,0.00,,---,0.00,VWS V14.01,2013-05-07 00:45:00,
2013-05-06 17:50:00,68.4,43.1,29.97,WNW,292,0.0,4.9,40,0.00,,---,0.00,VWS V14.01,2013-05-07 00:50:00,
2013-05-06 17:55:00,67.8,43.3,29.97,SW,225,1.3,7.8,41,0.00,,---,0.00,VWS V14.01,2013-05-07 00:55:00,
2013-05-06 18:00:00,68.4,44.4,29.94,WSW,248,0.9,4.7,42,0.00,,---,0.00,VWS V14.01,2013-05-07 01:00:00,
2013-05-06 18:05:00,70.7,44.5,29.94,ENE,68,2.5,5.6,39,0.00,,---,0.00,VWS V14.01,2013-05-07 01:05:00,
2013-05-06 18:15:00,70.7,44.5,29.94,North,0,2.5,4.3,39,0.00,,---,0.00,VWS V14.01,2013-05-07 01:15:00,
2013-05-06 18:20:00,68.5,42.6,29.94,WNW,292,2.9,8.7,39,0.00,,---,0.00,VWS V14.01,2013-05-07 01:20:00,
2013-05-06 18:25:00,67.6,42.5,29.94,West,270,2.7,4.0,40,0.00,,---,0.00,VWS V14.01,2013-05-07 01:25:00,
2013-05-06 18:30:00,67.1,42.6,29.94,West,270,1.6,3.1,41,0.00,,---,0.00,VWS V14.01,2013-05-07 01:30:00,
2013-05-06 18:40:00,66.0,42.9,29.94,West,270,2.5,4.3,43,0.00,,---,0.00,VWS V14.01,2013-05-07 01:40:00,
2013-05-06 18:50:00,65.7,43.2,29.94,NNW,338,0.9,6.0,44,0.00,,---,0.00,VWS V14.01,2013-05-07 01:50:00,
2013-05-06 19:00:00,65.3,42.8,29.94,NNE,22,1.6,4.3,44,0.00,,---,0.00,VWS V14.01,2013-05-07 02:00:00,
2013-05-06 19:05:00,65.5,43.6,29.94,North,0,0.0,3.1,45,0.00,,---,0.00,VWS V14.01,2013-05-07 02:05:00,
2013-05-06 19:10:00,65.7,43.8,29.94,WNW,292,1.6,5.4,45,0.00,,---,0.00,VWS V14.01,2013-05-07 02:10:00,
2013-05-06 19:15:00,65.5,43.6,29.91,WSW,248,2.0,3.8,45,0.00,,---,0.00,VWS V14.01,2013-05-07 02:15:00,
2013-05-06 19:25:00,65.1,43.3,29.91,NNW,338,1.3,3.6,45,0.00,,---,0.00,VWS V14.01,2013-05-07 02:25:00,
2013-05-06 19:30:00,64.9,43.7,29.94,North,0,1.3,2.7,46,0.00,,---,0.00,VWS V14.01,2013-05-07 02:30:00,
2013-05-06 19:35:00,64.2,43.6,29.94,NNW,338,2.5,5.4,47,0.00,,---,0.00,VWS V14.01,2013-05-07 02:35:00,
2013-05-06 19:45:00,63.3,42.8,29.91,ENE,68,0.0,6.0,47,0.00,,---,0.00,VWS V14.01,2013-05-07 02:45:00,
2013-05-06 19:50:00,62.6,42.7,29.91,NNW,338,1.1,3.1,48,0.00,,---,0.00,VWS V14.01,2013-05-07 02:50:00,
2013-05-06 20:00:00,61.7,42.4,29.94,ENE,68,2.0,3.4,49,0.00,,---,0.00,VWS V14.01,2013-05-07 03:00:00,
2013-05-06 20:05:00,61.3,42.6,29.94,SSW,202,0.0,2.2,50,0.00,,---,0.00,VWS V14.01,2013-05-07 03:05:00,
2013-05-06 20:10:00,61.3,42.6,29.94,East,90,0.9,2.0,50,0.00,,---,0.00,VWS V14.01,2013-05-07 03:10:00,
2013-05-06 20:15:00,61.2,43.4,29.97,North,0,2.7,4.3,52,0.00,,---,0.00,VWS V14.01,2013-05-07 03:15:00,
2013-05-06 20:20:00,61.2,44.4,29.97,WSW,248,1.3,4.0,54,0.00,,---,0.00,VWS V14.01,2013-05-07 03:20:00,
2013-05-06 20:25:00,61.0,43.8,29.97,NNE,22,0.0,2.2,53,0.00,,---,0.00,VWS V14.01,2013-05-07 03:25:00,
2013-05-06 20:35:00,61.0,43.8,29.97,SSW,202,2.7,3.6,53,0.00,,---,0.00,VWS V14.01,2013-05-07 03:35:00,
2013-05-06 20:40:00,61.0,44.7,29.97,WNW,292,0.0,2.9,55,0.00,,---,0.00,VWS V14.01,2013-05-07 03:40:00,
2013-05-06 20:50:00,60.8,45.0,29.97,NE,45,2.2,2.7,56,0.00,,---,0.00,VWS V14.01,2013-05-07 03:50:00,
2013-05-06 21:00:00,60.4,46.5,29.97,North,0,1.6,3.8,60,0.00,,---,0.00,VWS V14.01,2013-05-07 04:00:00,
2013-05-06 21:05:00,60.3,46.3,29.97,NNE,22,0.0,3.8,60,0.00,,---,0.00,VWS V14.01,2013-05-07 04:05:00,
2013-05-06 21:10:00,60.3,46.8,29.97,NNW,338,1.6,5.4,61,0.00,,---,0.00,VWS V14.01,2013-05-07 04:10:00,
2013-05-06 21:15:00,60.1,47.0,30.00,NNW,338,2.5,2.7,62,0.00,,---,0.00,VWS V14.01,2013-05-07 04:15:00,
2013-05-06 21:20:00,60.1,46.6,30.00,NNW,338,1.3,2.9,61,0.00,,---,0.00,VWS V14.01,2013-05-07 04:20:00,
2013-05-06 21:25:00,59.9,46.9,30.00,NNW,338,0.0,3.6,62,0.00,,---,0.00,VWS V14.01,2013-05-07 04:25:00,
2013-05-06 21:30:00,59.9,46.9,29.97,WSW,248,0.0,2.9,62,0.00,,---,0.00,VWS V14.01,2013-05-07 04:30:00,
2013-05-06 21:40:00,59.7,46.7,29.97,NNE,22,1.1,3.1,62,0.00,,---,0.00,VWS V14.01,2013-05-07 04:40:00,
2013-05-06 21:45:00,59.7,47.1,30.00,North,0,3.8,3.8,63,0.00,,---,0.00,VWS V14.01,2013-05-07 04:45:00,
2013-05-06 21:50:00,59.7,46.7,30.00,NNE,22,0.0,3.8,62,0.00,,---,0.00,VWS V14.01,2013-05-07 04:50:00,
2013-05-06 22:00:00,59.7,46.7,30.00,NW,315,0.9,3.4,62,0.00,,---,0.00,VWS V14.01,2013-05-07 05:00:00,
2013-05-06 22:05:00,59.5,46.5,30.00,NNW,338,2.7,3.6,62,0.00,,---,0.00,VWS V14.01,2013-05-07 05:05:00,
2013-05-06 22:10:00,59.5,47.0,30.00,North,0,1.3,3.1,63,0.00,,---,0.00,VWS V14.01,2013-05-07 05:10:00,
2013-05-06 22:20:00,59.4,46.3,30.03,NNW,338,1.3,2.0,62,0.00,,---,0.00,VWS V14.01,2013-05-07 05:20:00,
2013-05-06 22:25:00,59.4,46.3,30.03,NNW,338,0.0,2.2,62,0.00,,---,0.00,VWS V14.01,2013-05-07 05:25:00,
2013-05-06 22:35:00,59.4,46.3,30.03,NNW,338,0.0,3.4,62,0.00,,---,0.00,VWS V14.01,2013-05-07 05:35:00,
2013-05-06 22:45:00,59.2,46.2,30.03,NNW,338,0.9,1.1,62,0.00,,---,0.00,VWS V14.01,2013-05-07 05:45:00,
2013-05-06 22:55:00,59.2,46.2,30.03,NNW,338,0.0,2.0,62,0.00,,---,0.00,VWS V14.01,2013-05-07 05:55:00,
2013-05-06 23:00:00,59.2,46.2,30.03,NNW,338,0.9,2.0,62,0.00,,---,0.00,VWS V14.01,2013-05-07 06:00:00,
2013-05-06 23:05:00,59.2,46.2,30.03,NNE,22,0.0,2.5,62,0.00,,---,0.00,VWS V14.01,2013-05-07 06:05:00,
2013-05-06 23:10:00,59.0,46.0,30.03,North,0,0.0,1.3,62,0.00,,---,0.00,VWS V14.01,2013-05-07 06:10:00,
2013-05-06 23:20:00,59.2,46.2,30.03,North,0,0.0,2.5,62,0.00,,---,0.00,VWS V14.01,2013-05-07 06:20:00,
2013-05-06 23:30:00,59.0,46.0,30.03,North,0,2.2,2.2,62,0.00,,---,0.00,VWS V14.01,2013-05-07 06:30:00,
2013-05-06 23:40:00,58.8,46.3,30.03,NNW,338,0.9,3.1,63,0.00,,---,0.00,VWS V14.01,2013-05-07 06:40:00,
2013-05-06 23:45:00,58.8,46.3,30.03,North,0,0.9,1.6,63,0.00,,---,0.00,VWS V14.01,2013-05-07 06:45:00,
2013-05-06 23:55:00,58.8,46.3,30.03,NNW,338,0.0,2.9,63,0.00,,---,0.00,VWS V14.01,2013-05-07 06:55:00,